Préparation des vols

Pour bien préparer vos sorties, pensez à télécharger la fiche technique de votre avion, la check-list, le manuel de vol, le devis de centrage ou encore un modèle de Log de Nav.

Robin DR 400 120 (F-GSBN)

Type : 3/4 places instruction, entraînement, voyage.

Moteur : Lycoming 4 cyl. à plat, 120 cv.

Performances : 190 km/h

Autonomie : 4 h soit environ 760 km franchissables.

Avionique : 1 radio com Bendix/King, 1 VOR, 1 transpondeur mode S, intercom 2 voies type.

 

Robin DR 400 120 (F-GNNY)

Type : 3/4 places instruction, entraînement, voyage.

Moteur : Lycoming 4 cyl. à plat, 120 cv.

Performances : 190 km/h

Autonomie : 4 h soit environ 760 km franchissables.

Avionique : 1 radio com Bendix/King, 1 VOR, 1 transpondeur mode S, intercom 2 voies type.

 

Robin DR 400 (F-BXRY)

Type : 2/3 places en instruction & entraînement (devis de centrage).

Moteur : Lycoming 4 cyl. à plat, 108 cv.

Performances : 180 km/h

Autonomie : 4 h soit environ 720 km franchissables.

Avionique : 1 radio com Bendix/King, 1 VOR, 1 transpondeur.

Robin DR 400 140 B (F-GHPJ)

Type : 4 places, pour entraînement et voyage.

Moteur : Robin Lycoming 4 cyl. à plat, 160 cv.

Performances : 206 km/h

Autonomie : 3 h 30 min soit environ 720 km de distance franchissable.

Avionique : 1 radio com Bendix/King, 1 VOR, 1 transpondeur mode S, intercom 4 voies.

 

Robin DR 400 180 (F-BVMP)

Type : 4 places pour le voyage.

Moteur : Lycoming 4 cyl. à plat, 180 cv.

Performances : 250 km/h

Autonomie : 4 h soit environ 1000 km franchissables.

Avionique : 1 radio 8.33, 1 transpondeur mode S et 1 Garmin GNS 430

 

Piper Archer II (PA 28) (F-GALA)

 


Sab’in Shoot, photographe à Villepreux

Type : 4 places, pour entraînement, voyage.

Moteur : Lycoming 4 cyl. à plat, 180 cv.

Performances : 220 km/h

Autonomie : 5 h30 soit environ 1200 km de distance franchissable.

Avionique : Radio intégrée au système GPS Garmin GNS 430, 2 VOR, 1 DME, 1 transpondeur mode S, pilote automatique 2 axes, intercom 4 voies et boite de mélange.

 

Télécharger l’aide mémoire de la radio GTR 225A

Télécharger l’aide mémoire de la radio GNC 255A

Télécharger un log de nav

Log 1

Cliquez sur le formulaire pour le télécharger

Log_1*Notice d’utilisation*

Ce Log de Nav a été optimisé pour rendre les calculs automatiques sous Excel. Indiquez simplement vos points de report, les altitudes et les distances en NM. La feuille calcule alors le temps sans vent pour chaque étape et donne le total, qu’elle convertit en heure-minutes. Elle calcule également la distance totale et la convertit en kilomètres. Enfin, elle affiche le résultat du devis carburant, calculé automatiquement par le 2ème feuillet. Vous pouvez également inscrire préalablement les fréquences Radio et Nav. Les autres cases sont à remplir pendant le vol : date, top départ, heure estimée (grisée), heure réelle,horamètre, Atis…
Bons vols à tous !
Guillaume

Log 2

Cliquez sur le formulaire pour le télécharger

Log_2

Log 3

 Cliquez sur le formulaire pour le télécharger

Log_3

L’alphabet Morse et l’alphabet international

Alphabet International

Nos coordonnées

Aéroclub Renault

Aérodrome de Chavenay

78450 Chavenay-Villepreux

telephone

Atis

Télécharger la VAC LFPX

Télécharger le calcul de centrage

Télécharger la feuille ATIS

Télécharger le mémo VFR 2018-2019

METARS / TAF de Toussus, Evreux, Orly et Roissy

Toussus

LFPN 202130Z AUTO 11006KT 6000 NSC 01/00 Q1008 BECMG 4000 BR BKN009

TAF TAF AMD LFPN 132015Z 1320/1420 17005KT 5000 BKN025 TEMPO 1320/1324 2000 BR OVC008 PROB30 TEMPO 1320/1324 0800 FG OVC002

Evreux

LFOE 202230Z AUTO 08006KT 5000 BR NSC 01/00 Q1007 TEMPO 1200 BCFG BECMG OVC003

TAF LFOE 202000Z 2021/2121 12005KT 7000 NSC BECMG 2021/2023 3000 BR OVC003 TEMPO 2100/2107 1200 BCFG BECMG 2107/2109 7000 NSW BECMG 2111/2113 SCT015 BECMG 2115/2117 BKN010

Orly

LFPO 202230Z 08005KT CAVOK 01/00 Q1008 NOSIG

TAF LFPO 201700Z 2018/2124 12008KT CAVOK BECMG 2020/2023 6000 BKN009 BECMG 2023/2102 1500 BR BKN004 TEMPO 2102/2111 0300 FG VV/// BECMG 2111/2113 9999 SCT012 BECMG 2116/2118 BKN025 TEMPO 2117/2124 -RA BKN013

Roissy

LFPG 202230Z 07006KT 6000 NSC 01/00 Q1008 NOSIG

TAF AMD LFPG 202039Z 2020/2124 12010KT CAVOK TX09/2114Z TN01/2106Z PROB30 TEMPO 2020/2021 BKN009 BECMG 2022/2024 3000 BR BKN005 PROB40 2102/2107 0500 FG BKN001 BECMG 2108/2110 7000 NSW NSC BECMG 2120/2122 BKN010

Share This